Year,Month,Day,Hour,Minute,Value (Times are PST for temperature in C)
2007,09,23,00,00,7.60
2007,09,23,00,01,7.60
2007,09,23,00,02,7.60
2007,09,23,00,03,7.60
2007,09,23,00,04,7.70
2007,09,23,00,05,7.70
2007,09,23,00,06,7.70
2007,09,23,00,07,7.70
2007,09,23,00,08,7.70
2007,09,23,00,09,7.70
2007,09,23,00,10,7.70
2007,09,23,00,11,7.70
2007,09,23,00,12,7.80
2007,09,23,00,13,7.80
2007,09,23,00,14,7.80
2007,09,23,00,15,7.80
2007,09,23,00,16,7.80
2007,09,23,00,17,7.80
2007,09,23,00,18,7.80
2007,09,23,00,19,7.80
2007,09,23,00,20,7.80
2007,09,23,00,21,7.80
2007,09,23,00,22,7.80
2007,09,23,00,23,7.80
2007,09,23,00,24,7.80
2007,09,23,00,25,7.80
2007,09,23,00,26,7.80
2007,09,23,00,27,7.80
2007,09,23,00,28,7.80
2007,09,23,00,29,7.80
2007,09,23,00,30,7.80
2007,09,23,00,31,7.80
2007,09,23,00,32,7.90
2007,09,23,00,33,7.90
2007,09,23,00,34,7.90
2007,09,23,00,35,7.90
2007,09,23,00,36,7.90
2007,09,23,00,37,7.90
2007,09,23,00,38,7.90
2007,09,23,00,39,7.90
2007,09,23,00,40,7.90
2007,09,23,00,41,7.90
2007,09,23,00,42,8.00
2007,09,23,00,43,8.00
2007,09,23,00,44,8.00
2007,09,23,00,45,8.00
2007,09,23,00,46,8.00
2007,09,23,00,47,8.00
2007,09,23,00,48,8.00
2007,09,23,00,49,8.00
2007,09,23,00,50,8.00
2007,09,23,00,51,8.10
2007,09,23,00,52,8.10
2007,09,23,00,53,8.10
2007,09,23,00,54,8.10
2007,09,23,00,55,8.20
2007,09,23,00,56,8.20
2007,09,23,00,57,8.20
2007,09,23,00,58,8.20
2007,09,23,00,59,8.20
2007,09,23,01,00,8.20
2007,09,23,01,01,8.10
2007,09,23,01,02,8.10
2007,09,23,01,03,8.10
2007,09,23,01,04,8.10
2007,09,23,01,05,8.10
2007,09,23,01,06,8.10
2007,09,23,01,07,8.10
2007,09,23,01,08,8.10
2007,09,23,01,09,8.10
2007,09,23,01,10,8.10
2007,09,23,01,11,8.10
2007,09,23,01,12,8.10
2007,09,23,01,13,8.00
2007,09,23,01,14,8.00
2007,09,23,01,15,8.00
2007,09,23,01,16,8.00
2007,09,23,01,17,8.00
2007,09,23,01,18,8.00
2007,09,23,01,19,8.00
2007,09,23,01,20,8.00
2007,09,23,01,21,8.00
2007,09,23,01,22,8.00
2007,09,23,01,23,8.00
2007,09,23,01,24,8.00
2007,09,23,01,25,8.00
2007,09,23,01,26,8.00
2007,09,23,01,27,8.00
2007,09,23,01,28,8.00
2007,09,23,01,29,7.90
2007,09,23,01,30,7.90
2007,09,23,01,31,7.90
2007,09,23,01,32,7.90
2007,09,23,01,33,7.90
2007,09,23,01,34,7.90
2007,09,23,01,35,7.80
2007,09,23,01,36,7.80
2007,09,23,01,37,7.80
2007,09,23,01,38,7.80
2007,09,23,01,39,7.80
2007,09,23,01,40,7.80
2007,09,23,01,41,7.80
2007,09,23,01,42,7.80
2007,09,23,01,43,7.80
2007,09,23,01,44,7.80
2007,09,23,01,45,7.80
2007,09,23,01,46,7.80
2007,09,23,01,47,7.80
2007,09,23,01,48,7.70
2007,09,23,01,49,7.70
2007,09,23,01,50,7.70
2007,09,23,01,51,7.70
2007,09,23,01,52,7.70
2007,09,23,01,53,7.70
2007,09,23,01,54,7.60
2007,09,23,01,55,7.60
2007,09,23,01,56,7.60
2007,09,23,01,57,7.60
2007,09,23,01,58,7.60
2007,09,23,01,59,7.50
2007,09,23,02,00,7.50
2007,09,23,02,01,7.50
2007,09,23,02,02,7.50
2007,09,23,02,03,7.50
2007,09,23,02,04,7.40
2007,09,23,02,05,7.40
2007,09,23,02,06,7.40
2007,09,23,02,07,7.40
2007,09,23,02,08,7.40
2007,09,23,02,09,7.40
2007,09,23,02,10,7.40
2007,09,23,02,11,7.40
2007,09,23,02,12,7.40
2007,09,23,02,13,7.40
2007,09,23,02,14,7.40
2007,09,23,02,15,7.40
2007,09,23,02,16,7.40
2007,09,23,02,17,7.40
2007,09,23,02,18,7.40
2007,09,23,02,19,7.30
2007,09,23,02,20,7.30
2007,09,23,02,21,7.30
2007,09,23,02,22,7.30
2007,09,23,02,23,7.30
2007,09,23,02,24,7.30
2007,09,23,02,25,7.30
2007,09,23,02,26,7.30
2007,09,23,02,27,7.30
2007,09,23,02,28,7.30
2007,09,23,02,29,7.40
2007,09,23,02,30,7.40
2007,09,23,02,31,7.40
2007,09,23,02,32,7.40
2007,09,23,02,33,7.40
2007,09,23,02,34,7.40
2007,09,23,02,35,7.40
2007,09,23,02,36,7.40
2007,09,23,02,37,7.40
2007,09,23,02,38,7.40
2007,09,23,02,39,7.40
2007,09,23,02,40,7.40
2007,09,23,02,41,7.40
2007,09,23,02,42,7.40
2007,09,23,02,43,7.40
2007,09,23,02,44,7.40
2007,09,23,02,45,7.50
2007,09,23,02,46,7.50
2007,09,23,02,47,7.50
2007,09,23,02,48,7.50
2007,09,23,02,49,7.50
2007,09,23,02,50,7.50
2007,09,23,02,51,7.50
2007,09,23,02,52,7.60
2007,09,23,02,53,7.60
2007,09,23,02,54,7.60
2007,09,23,02,55,7.60
2007,09,23,02,56,7.60
2007,09,23,02,57,7.60
2007,09,23,02,58,7.60
2007,09,23,02,59,7.60
2007,09,23,03,00,7.60
2007,09,23,03,01,7.60
2007,09,23,03,02,7.60
2007,09,23,03,03,7.60
2007,09,23,03,04,7.60
2007,09,23,03,05,7.60
2007,09,23,03,06,7.60
2007,09,23,03,07,7.60
2007,09,23,03,08,7.60
2007,09,23,03,09,7.60
2007,09,23,03,10,7.60
2007,09,23,03,11,7.60
2007,09,23,03,12,7.50
2007,09,23,03,13,7.50
2007,09,23,03,14,7.50
2007,09,23,03,15,7.50
2007,09,23,03,16,7.50
2007,09,23,03,17,7.50
2007,09,23,03,18,7.50
2007,09,23,03,19,7.50
2007,09,23,03,20,7.50
2007,09,23,03,21,7.50
2007,09,23,03,22,7.50
2007,09,23,03,23,7.40
2007,09,23,03,24,7.40
2007,09,23,03,25,7.40
2007,09,23,03,26,7.40
2007,09,23,03,27,7.40
2007,09,23,03,28,7.30
2007,09,23,03,29,7.30
2007,09,23,03,30,7.30
2007,09,23,03,31,7.30
2007,09,23,03,32,7.30
2007,09,23,03,33,7.30
2007,09,23,03,34,7.30
2007,09,23,03,35,7.30
2007,09,23,03,36,7.30
2007,09,23,03,37,7.30
2007,09,23,03,38,7.30
2007,09,23,03,39,7.30
2007,09,23,03,40,7.30
2007,09,23,03,41,7.30
2007,09,23,03,42,7.20
2007,09,23,03,43,7.20
2007,09,23,03,44,7.10
2007,09,23,03,45,7.10
2007,09,23,03,46,7.10
2007,09,23,03,47,7.00
2007,09,23,03,48,7.00
2007,09,23,03,49,7.00
2007,09,23,03,50,7.00
2007,09,23,03,51,7.00
2007,09,23,03,52,7.00
2007,09,23,03,53,7.00
2007,09,23,03,54,6.90
2007,09,23,03,55,6.90
2007,09,23,03,56,6.90
2007,09,23,03,57,6.90
2007,09,23,03,58,6.90
2007,09,23,03,59,6.90
2007,09,23,04,00,6.90
2007,09,23,04,01,6.80
2007,09,23,04,02,6.80
2007,09,23,04,03,6.80
2007,09,23,04,04,6.80
2007,09,23,04,05,6.80
2007,09,23,04,06,6.80
2007,09,23,04,07,6.80
2007,09,23,04,08,6.80
2007,09,23,04,09,6.80
2007,09,23,04,10,6.80
2007,09,23,04,11,6.80
2007,09,23,04,12,6.80
2007,09,23,04,13,6.80
2007,09,23,04,14,6.80
2007,09,23,04,15,6.80
2007,09,23,04,16,6.80
2007,09,23,04,17,6.80
2007,09,23,04,18,6.70
2007,09,23,04,19,6.70
2007,09,23,04,20,6.70
2007,09,23,04,21,6.70
2007,09,23,04,22,6.70
2007,09,23,04,23,6.60
2007,09,23,04,24,6.60
2007,09,23,04,25,6.60
2007,09,23,04,26,6.60
2007,09,23,04,27,6.60
2007,09,23,04,28,6.60
2007,09,23,04,29,6.60
2007,09,23,04,30,6.60
2007,09,23,04,31,6.60
2007,09,23,04,32,6.60
2007,09,23,04,33,6.40
2007,09,23,04,34,6.40
2007,09,23,04,35,6.40
2007,09,23,04,36,6.40
2007,09,23,04,37,6.40
2007,09,23,04,38,6.40
2007,09,23,04,39,6.40
2007,09,23,04,40,6.40
2007,09,23,04,41,6.40
2007,09,23,04,42,6.30
2007,09,23,04,43,6.30
2007,09,23,04,44,6.30
2007,09,23,04,45,6.30
2007,09,23,04,46,6.30
2007,09,23,04,47,6.30
2007,09,23,04,48,6.30
2007,09,23,04,49,6.30
2007,09,23,04,50,6.20
2007,09,23,04,51,6.20
2007,09,23,04,52,6.20
2007,09,23,04,53,6.20
2007,09,23,04,54,6.20
2007,09,23,04,55,6.20
2007,09,23,04,56,6.20
2007,09,23,04,57,6.20
2007,09,23,04,58,6.20
2007,09,23,04,59,6.20
2007,09,23,05,00,6.10
2007,09,23,05,01,6.10
2007,09,23,05,02,6.10
2007,09,23,05,03,6.10
2007,09,23,05,04,6.00
2007,09,23,05,05,6.00
2007,09,23,05,06,6.00
2007,09,23,05,07,6.00
2007,09,23,05,08,6.00
2007,09,23,05,09,6.00
2007,09,23,05,10,6.00
2007,09,23,05,11,6.00
2007,09,23,05,12,5.90
2007,09,23,05,13,5.90
2007,09,23,05,14,5.90
2007,09,23,05,15,5.90
2007,09,23,05,16,5.90
2007,09,23,05,17,5.90
2007,09,23,05,18,5.90
2007,09,23,05,19,5.90
2007,09,23,05,20,5.90
2007,09,23,05,21,5.90
2007,09,23,05,22,5.80
2007,09,23,05,23,5.80
2007,09,23,05,24,5.80
2007,09,23,05,25,5.80
2007,09,23,05,26,5.80
2007,09,23,05,27,5.70
2007,09,23,05,28,5.70
2007,09,23,05,29,5.70
2007,09,23,05,30,5.70
2007,09,23,05,31,5.70
2007,09,23,05,32,5.70
2007,09,23,05,33,5.70
2007,09,23,05,34,5.70
2007,09,23,05,35,5.70
2007,09,23,05,36,5.70
2007,09,23,05,37,5.70
2007,09,23,05,38,5.70
2007,09,23,05,39,5.70
2007,09,23,05,40,5.70
2007,09,23,05,41,5.70
2007,09,23,05,42,5.70
2007,09,23,05,43,5.70
2007,09,23,05,44,5.70
2007,09,23,05,45,5.70
2007,09,23,05,46,5.70
2007,09,23,05,47,5.70
2007,09,23,05,48,5.60
2007,09,23,05,49,5.60
2007,09,23,05,50,5.60
2007,09,23,05,51,5.60
2007,09,23,05,52,5.60
2007,09,23,05,53,5.60
2007,09,23,05,54,5.60
2007,09,23,05,55,5.60
2007,09,23,05,56,5.60
2007,09,23,05,57,5.60
2007,09,23,05,58,5.60
2007,09,23,05,59,5.60
2007,09,23,06,00,5.60
2007,09,23,06,01,5.60
2007,09,23,06,02,5.60
2007,09,23,06,03,5.50
2007,09,23,06,04,5.50
2007,09,23,06,05,5.50
2007,09,23,06,06,5.50
2007,09,23,06,07,5.50
2007,09,23,06,08,5.50
2007,09,23,06,09,5.50
2007,09,23,06,10,5.50
2007,09,23,06,11,5.50
2007,09,23,06,12,5.50
2007,09,23,06,13,5.50
2007,09,23,06,14,5.40
2007,09,23,06,15,5.40
2007,09,23,06,16,5.40
2007,09,23,06,17,5.40
2007,09,23,06,18,5.30
2007,09,23,06,19,5.30
2007,09,23,06,20,5.30
2007,09,23,06,21,5.30
2007,09,23,06,22,5.30
2007,09,23,06,23,5.30
2007,09,23,06,24,5.30
2007,09,23,06,25,5.30
2007,09,23,06,26,5.30
2007,09,23,06,27,5.30
2007,09,23,06,28,5.30
2007,09,23,06,29,5.30
2007,09,23,06,30,5.30
2007,09,23,06,31,5.30
2007,09,23,06,32,5.30
2007,09,23,06,33,5.30
2007,09,23,06,34,5.20
2007,09,23,06,35,5.20
2007,09,23,06,36,5.20
2007,09,23,06,37,5.20
2007,09,23,06,38,5.20
2007,09,23,06,39,5.10
2007,09,23,06,40,5.10
2007,09,23,06,41,5.10
2007,09,23,06,42,5.10
2007,09,23,06,43,5.10
2007,09,23,06,44,5.10
2007,09,23,06,45,5.10
2007,09,23,06,46,5.10
2007,09,23,06,47,5.10
2007,09,23,06,48,5.10
2007,09,23,06,49,5.10
2007,09,23,06,50,5.10
2007,09,23,06,51,5.10
2007,09,23,06,52,5.10
2007,09,23,06,53,5.10
2007,09,23,06,54,5.10
2007,09,23,06,55,5.10
2007,09,23,06,56,5.10
2007,09,23,06,57,5.10
2007,09,23,06,58,5.10
2007,09,23,06,59,5.10
2007,09,23,07,00,5.10
2007,09,23,07,01,5.10
2007,09,23,07,02,5.10
2007,09,23,07,03,5.10
2007,09,23,07,04,5.10
2007,09,23,07,05,5.10
2007,09,23,07,06,5.10
2007,09,23,07,07,5.10
2007,09,23,07,08,5.10
2007,09,23,07,09,5.10
2007,09,23,07,10,5.10
2007,09,23,07,11,5.00
2007,09,23,07,12,5.00
2007,09,23,07,13,5.00
2007,09,23,07,14,4.90
2007,09,23,07,15,4.90
2007,09,23,07,16,4.90
2007,09,23,07,17,4.90
2007,09,23,07,18,4.90
2007,09,23,07,19,4.90
2007,09,23,07,20,4.90
2007,09,23,07,21,4.90
2007,09,23,07,22,5.00
2007,09,23,07,23,5.10
2007,09,23,07,24,5.10
2007,09,23,07,25,5.10
2007,09,23,07,26,5.10
2007,09,23,07,27,5.10
2007,09,23,07,28,5.10
2007,09,23,07,29,5.10
2007,09,23,07,30,5.00
2007,09,23,07,31,4.90
2007,09,23,07,32,4.90
2007,09,23,07,33,5.00
2007,09,23,07,34,5.10
2007,09,23,07,35,5.10
2007,09,23,07,36,5.10
2007,09,23,07,37,5.10
2007,09,23,07,38,5.10
2007,09,23,07,39,5.10
2007,09,23,07,40,5.10
2007,09,23,07,41,5.10
2007,09,23,07,42,5.10
2007,09,23,07,43,5.00
2007,09,23,07,44,4.90
2007,09,23,07,45,4.90
2007,09,23,07,46,4.90
2007,09,23,07,47,4.90
2007,09,23,07,48,4.90
2007,09,23,07,49,4.90
2007,09,23,07,50,5.00
2007,09,23,07,51,5.10
2007,09,23,07,52,5.10
2007,09,23,07,53,5.10
2007,09,23,07,54,5.10
2007,09,23,07,55,5.10
2007,09,23,07,56,5.10
2007,09,23,07,57,5.10
2007,09,23,07,58,5.10
2007,09,23,07,59,5.10
2007,09,23,08,00,5.10
2007,09,23,08,01,5.10
2007,09,23,08,02,5.10
2007,09,23,08,03,5.10
2007,09,23,08,04,5.10
2007,09,23,08,05,5.10
2007,09,23,08,06,5.10
2007,09,23,08,07,5.10
2007,09,23,08,08,5.10
2007,09,23,08,09,5.10
2007,09,23,08,10,5.10
2007,09,23,08,11,5.10
2007,09,23,08,12,5.10
2007,09,23,08,13,5.10
2007,09,23,08,14,5.10
2007,09,23,08,15,5.10
2007,09,23,08,16,5.10
2007,09,23,08,17,5.10
2007,09,23,08,18,5.10
2007,09,23,08,19,5.20
2007,09,23,08,20,5.20
2007,09,23,08,21,5.20
2007,09,23,08,22,5.20
2007,09,23,08,23,5.20
2007,09,23,08,24,5.20
2007,09,23,08,25,5.20
2007,09,23,08,26,5.30
2007,09,23,08,27,5.30
2007,09,23,08,28,5.30
2007,09,23,08,29,5.30
2007,09,23,08,30,5.30
2007,09,23,08,31,5.40
2007,09,23,08,32,5.40
2007,09,23,08,33,5.40
2007,09,23,08,34,5.40
2007,09,23,08,35,5.50
2007,09,23,08,36,5.50
2007,09,23,08,37,5.50
2007,09,23,08,38,5.60
2007,09,23,08,39,5.60
2007,09,23,08,40,5.70
2007,09,23,08,41,5.70
2007,09,23,08,42,5.70
2007,09,23,08,43,5.70
2007,09,23,08,44,5.70
2007,09,23,08,45,5.70
2007,09,23,08,46,5.80
2007,09,23,08,47,5.80
2007,09,23,08,48,5.90
2007,09,23,08,49,5.90
2007,09,23,08,50,6.00
2007,09,23,08,51,6.00
2007,09,23,08,52,6.10
2007,09,23,08,53,6.10
2007,09,23,08,54,6.10
2007,09,23,08,55,6.20
2007,09,23,08,56,6.20
2007,09,23,08,57,6.20
2007,09,23,08,58,6.30
2007,09,23,08,59,6.40
2007,09,23,09,00,6.40
2007,09,23,09,01,6.60
2007,09,23,09,02,6.60
2007,09,23,09,03,6.70
2007,09,23,09,04,6.70
2007,09,23,09,05,6.80
2007,09,23,09,06,6.80
2007,09,23,09,07,6.90
2007,09,23,09,08,6.90
2007,09,23,09,09,7.00
2007,09,23,09,10,7.00
2007,09,23,09,11,7.10
2007,09,23,09,12,7.20
2007,09,23,09,13,7.20
2007,09,23,09,14,7.30
2007,09,23,09,15,7.30
2007,09,23,09,16,7.30
2007,09,23,09,17,7.40
2007,09,23,09,18,7.50
2007,09,23,09,19,7.50
2007,09,23,09,20,7.60
2007,09,23,09,21,7.70
2007,09,23,09,22,7.80
2007,09,23,09,23,7.80
2007,09,23,09,24,7.80
2007,09,23,09,25,7.90
2007,09,23,09,26,8.00
2007,09,23,09,27,8.00
2007,09,23,09,28,8.10
2007,09,23,09,29,8.20
2007,09,23,09,30,8.30
2007,09,23,09,31,8.30
2007,09,23,09,32,8.40
2007,09,23,09,33,8.50
2007,09,23,09,34,8.60
2007,09,23,09,35,8.70
2007,09,23,09,36,8.70
2007,09,23,09,37,8.80
2007,09,23,09,38,8.80
2007,09,23,09,39,8.90
2007,09,23,09,40,8.90
2007,09,23,09,41,9.00
2007,09,23,09,42,9.10
2007,09,23,09,43,9.20
2007,09,23,09,44,9.20
2007,09,23,09,45,9.30
2007,09,23,09,46,9.40
2007,09,23,09,47,9.50
2007,09,23,09,48,9.60
2007,09,23,09,49,9.60
2007,09,23,09,50,9.60
2007,09,23,09,51,9.70
2007,09,23,09,52,9.70
2007,09,23,09,53,9.70
2007,09,23,09,54,9.70
2007,09,23,09,55,9.70
2007,09,23,09,56,9.70
2007,09,23,09,57,9.70
2007,09,23,09,58,9.70
2007,09,23,09,59,9.70
2007,09,23,10,00,9.70
2007,09,23,10,01,9.70
2007,09,23,10,02,9.70
2007,09,23,10,03,9.70
2007,09,23,10,04,9.70
2007,09,23,10,05,9.80
2007,09,23,10,06,9.90
2007,09,23,10,07,10.10
2007,09,23,10,08,10.20
2007,09,23,10,09,10.20
2007,09,23,10,10,10.20
2007,09,23,10,11,10.20
2007,09,23,10,12,10.20
2007,09,23,10,13,10.30
2007,09,23,10,14,10.30
2007,09,23,10,15,10.40
2007,09,23,10,16,10.60
2007,09,23,10,17,10.60
2007,09,23,10,18,10.70
2007,09,23,10,19,10.80
2007,09,23,10,20,10.80
2007,09,23,10,21,10.80
2007,09,23,10,22,10.80
2007,09,23,10,23,10.90
2007,09,23,10,24,10.90
2007,09,23,10,25,10.90
2007,09,23,10,26,10.90
2007,09,23,10,27,10.90
2007,09,23,10,28,10.90
2007,09,23,10,29,10.90
2007,09,23,10,30,10.90
2007,09,23,10,31,10.90
2007,09,23,10,32,10.90
2007,09,23,10,33,10.90
2007,09,23,10,34,11.00
2007,09,23,10,35,11.10
2007,09,23,10,36,11.10
2007,09,23,10,37,11.10
2007,09,23,10,38,11.20
2007,09,23,10,39,11.20
2007,09,23,10,40,11.30
2007,09,23,10,41,11.30
2007,09,23,10,42,11.40
2007,09,23,10,43,11.40
2007,09,23,10,44,11.40
2007,09,23,10,45,11.40
2007,09,23,10,46,11.50
2007,09,23,10,47,11.60
2007,09,23,10,48,11.50
2007,09,23,10,49,11.50
2007,09,23,10,50,11.40
2007,09,23,10,51,11.40
2007,09,23,10,52,11.40
2007,09,23,10,53,11.40
2007,09,23,10,54,11.40
2007,09,23,10,55,11.40
2007,09,23,10,56,11.40
2007,09,23,10,57,11.40
2007,09,23,10,58,11.40
2007,09,23,10,59,11.40
2007,09,23,11,00,11.40
2007,09,23,11,01,11.40
2007,09,23,11,02,11.40
2007,09,23,11,03,11.40
2007,09,23,11,04,11.60
2007,09,23,11,05,11.60
2007,09,23,11,06,11.60
2007,09,23,11,07,11.60
2007,09,23,11,08,11.60
2007,09,23,11,09,11.60
2007,09,23,11,10,11.60
2007,09,23,11,11,11.60
2007,09,23,11,12,11.70
2007,09,23,11,13,11.70
2007,09,23,11,14,11.70
2007,09,23,11,15,11.80
2007,09,23,11,16,11.80
2007,09,23,11,17,11.90
2007,09,23,11,18,12.00
2007,09,23,11,19,12.10
2007,09,23,11,20,12.20
2007,09,23,11,21,12.30
2007,09,23,11,22,12.30
2007,09,23,11,23,12.30
2007,09,23,11,24,12.30
2007,09,23,11,25,12.40
2007,09,23,11,26,12.40
2007,09,23,11,27,12.40
2007,09,23,11,28,12.50
2007,09,23,11,29,12.50
2007,09,23,11,30,12.50
2007,09,23,11,31,12.50
2007,09,23,11,32,12.50
2007,09,23,11,33,12.50
2007,09,23,11,34,12.50
2007,09,23,11,35,12.50
2007,09,23,11,36,12.50
2007,09,23,11,37,12.50
2007,09,23,11,38,12.50
2007,09,23,11,39,12.50
2007,09,23,11,40,12.60
2007,09,23,11,41,12.60
2007,09,23,11,42,12.60
2007,09,23,11,43,12.70
2007,09,23,11,44,12.70
2007,09,23,11,45,12.70
2007,09,23,11,46,12.80
2007,09,23,11,47,12.80
2007,09,23,11,48,12.80
2007,09,23,11,49,13.00
2007,09,23,11,50,13.10
2007,09,23,11,51,13.20
2007,09,23,11,52,13.40
2007,09,23,11,53,13.50
2007,09,23,11,54,13.60
2007,09,23,11,55,13.60
2007,09,23,11,56,13.70
2007,09,23,11,57,13.70
2007,09,23,11,58,13.70
2007,09,23,11,59,13.70
2007,09,23,12,00,13.80
2007,09,23,12,01,13.80
2007,09,23,12,02,13.80
2007,09,23,12,03,13.80
2007,09,23,12,04,13.80
2007,09,23,12,05,13.90
2007,09,23,12,06,13.90
2007,09,23,12,07,13.90
2007,09,23,12,08,13.90
2007,09,23,12,09,14.00
2007,09,23,12,10,14.00
2007,09,23,12,11,14.10
2007,09,23,12,12,14.20
2007,09,23,12,13,14.20
2007,09,23,12,14,14.20
2007,09,23,12,15,14.20
2007,09,23,12,16,14.20
2007,09,23,12,17,14.20
2007,09,23,12,18,14.20
2007,09,23,12,19,14.10
2007,09,23,12,20,14.10
2007,09,23,12,21,14.10
2007,09,23,12,22,14.20
2007,09,23,12,23,14.20
2007,09,23,12,24,14.20
2007,09,23,12,25,14.20
2007,09,23,12,26,14.20
2007,09,23,12,27,14.30
2007,09,23,12,28,14.30
2007,09,23,12,29,14.30
2007,09,23,12,30,14.40
2007,09,23,12,31,14.40
2007,09,23,12,32,14.40
2007,09,23,12,33,14.50
2007,09,23,12,34,14.50
2007,09,23,12,35,14.50
2007,09,23,12,36,14.50
2007,09,23,12,37,14.50
2007,09,23,12,38,14.50
2007,09,23,12,39,14.50
2007,09,23,12,40,14.50
2007,09,23,12,41,14.50
2007,09,23,12,42,14.40
2007,09,23,12,43,14.40
2007,09,23,12,44,14.30
2007,09,23,12,45,14.30
2007,09,23,12,46,14.30
2007,09,23,12,47,14.30
2007,09,23,12,48,14.40
2007,09,23,12,49,14.40
2007,09,23,12,50,14.40
2007,09,23,12,51,14.40
2007,09,23,12,52,14.40
2007,09,23,12,53,14.50
2007,09,23,12,54,14.50
2007,09,23,12,55,14.50
2007,09,23,12,56,14.40
2007,09,23,12,57,14.50
2007,09,23,12,58,14.40
2007,09,23,12,59,14.40
2007,09,23,13,00,14.40
2007,09,23,13,01,14.40
2007,09,23,13,02,14.40
2007,09,23,13,03,14.40
2007,09,23,13,04,14.50
2007,09,23,13,05,14.50
2007,09,23,13,06,14.50
2007,09,23,13,07,14.50
2007,09,23,13,08,14.50
2007,09,23,13,09,14.50
2007,09,23,13,10,14.60
2007,09,23,13,11,14.60
2007,09,23,13,12,14.60
2007,09,23,13,13,14.60
2007,09,23,13,14,14.60
2007,09,23,13,15,14.70
2007,09,23,13,16,14.70
2007,09,23,13,17,14.70
2007,09,23,13,18,14.80
2007,09,23,13,19,14.80
2007,09,23,13,20,14.80
2007,09,23,13,21,14.90
2007,09,23,13,22,14.90
2007,09,23,13,23,14.90
2007,09,23,13,24,15.00
2007,09,23,13,25,15.00
2007,09,23,13,26,15.00
2007,09,23,13,27,15.00
2007,09,23,13,28,15.00
2007,09,23,13,29,15.00
2007,09,23,13,30,15.00
2007,09,23,13,31,14.90
2007,09,23,13,32,14.90
2007,09,23,13,33,14.80
2007,09,23,13,34,14.80
2007,09,23,13,35,14.80
2007,09,23,13,36,14.80
2007,09,23,13,37,14.80
2007,09,23,13,38,14.80
2007,09,23,13,39,14.80
2007,09,23,13,40,14.80
2007,09,23,13,41,14.80
2007,09,23,13,42,14.80
2007,09,23,13,43,14.80
2007,09,23,13,44,14.80
2007,09,23,13,45,14.80
2007,09,23,13,46,14.80
2007,09,23,13,47,14.80
2007,09,23,13,48,14.80
2007,09,23,13,49,14.90
2007,09,23,13,50,14.90
2007,09,23,13,51,14.90
2007,09,23,13,52,14.90
2007,09,23,13,53,14.90
2007,09,23,13,54,14.90
2007,09,23,13,55,14.90
2007,09,23,13,56,14.90
2007,09,23,13,57,14.90
2007,09,23,13,58,14.90
2007,09,23,13,59,14.90
2007,09,23,14,00,14.90
2007,09,23,14,01,15.00
2007,09,23,14,02,15.10
2007,09,23,14,03,15.20
2007,09,23,14,04,15.20
2007,09,23,14,05,15.30
2007,09,23,14,06,15.50
2007,09,23,14,07,15.60
2007,09,23,14,08,15.60
2007,09,23,14,09,15.70
2007,09,23,14,10,15.70
2007,09,23,14,11,15.80
2007,09,23,14,12,15.80
2007,09,23,14,13,15.80
2007,09,23,14,14,15.80
2007,09,23,14,15,15.90
2007,09,23,14,16,16.00
2007,09,23,14,17,16.10
2007,09,23,14,18,16.20
2007,09,23,14,19,16.30
2007,09,23,14,20,16.40
2007,09,23,14,21,16.40
2007,09,23,14,22,16.40
2007,09,23,14,23,16.40
2007,09,23,14,24,16.40
2007,09,23,14,25,16.60
2007,09,23,14,26,16.70
2007,09,23,14,27,16.90
2007,09,23,14,28,17.00
2007,09,23,14,29,17.00
2007,09,23,14,30,17.00
2007,09,23,14,31,17.00
2007,09,23,14,32,17.00
2007,09,23,14,33,17.00
2007,09,23,14,34,17.10
2007,09,23,14,35,17.10
2007,09,23,14,36,17.10
2007,09,23,14,37,17.10
2007,09,23,14,38,17.10
2007,09,23,14,39,17.00
2007,09,23,14,40,17.00
2007,09,23,14,41,16.90
2007,09,23,14,42,16.80
2007,09,23,14,43,16.70
2007,09,23,14,44,16.70
2007,09,23,14,45,16.70
2007,09,23,14,46,16.70
2007,09,23,14,47,16.60
2007,09,23,14,48,16.60
2007,09,23,14,49,16.40
2007,09,23,14,50,16.40
2007,09,23,14,51,16.40
2007,09,23,14,52,16.40
2007,09,23,14,53,16.50
2007,09,23,14,54,16.40
2007,09,23,14,55,16.40
2007,09,23,14,56,16.50
2007,09,23,14,57,16.60
2007,09,23,14,58,16.70
2007,09,23,14,59,16.90
2007,09,23,15,00,17.00
2007,09,23,15,01,17.00
2007,09,23,15,02,17.00
2007,09,23,15,03,16.90
2007,09,23,15,04,16.80
2007,09,23,15,05,16.70
2007,09,23,15,06,16.70
2007,09,23,15,07,16.50
2007,09,23,15,08,16.40
2007,09,23,15,09,16.30
2007,09,23,15,10,16.30
2007,09,23,15,11,16.40
2007,09,23,15,12,16.40
2007,09,23,15,13,16.40
2007,09,23,15,14,16.30
2007,09,23,15,15,16.30
2007,09,23,15,16,16.30
2007,09,23,15,17,16.30
2007,09,23,15,18,16.30
2007,09,23,15,19,16.20
2007,09,23,15,20,16.10
2007,09,23,15,21,16.10
2007,09,23,15,22,16.10
2007,09,23,15,23,16.10
2007,09,23,15,24,16.10
2007,09,23,15,25,16.10
2007,09,23,15,26,16.00
2007,09,23,15,27,15.90
2007,09,23,15,28,15.90
2007,09,23,15,29,15.90
2007,09,23,15,30,15.80
2007,09,23,15,31,15.70
2007,09,23,15,32,15.60
2007,09,23,15,33,15.50
2007,09,23,15,34,15.40
2007,09,23,15,35,15.30
2007,09,23,15,36,15.20
2007,09,23,15,37,15.10
2007,09,23,15,38,15.10
2007,09,23,15,39,15.00
2007,09,23,15,40,15.00
2007,09,23,15,41,14.90
2007,09,23,15,42,14.90
2007,09,23,15,43,14.90
2007,09,23,15,44,14.80
2007,09,23,15,45,14.80
2007,09,23,15,46,14.80
2007,09,23,15,47,14.80
2007,09,23,15,48,14.80
2007,09,23,15,49,14.80
2007,09,23,15,50,14.80
2007,09,23,15,51,14.70
2007,09,23,15,52,14.70
2007,09,23,15,53,14.70
2007,09,23,15,54,14.70
2007,09,23,15,55,14.70
2007,09,23,15,56,14.70
2007,09,23,15,57,14.60
2007,09,23,15,58,14.60
2007,09,23,15,59,14.60
2007,09,23,16,00,14.60
2007,09,23,16,01,14.60
2007,09,23,16,02,14.60
2007,09,23,16,03,14.60
2007,09,23,16,04,14.60
2007,09,23,16,05,14.60
2007,09,23,16,06,14.60
2007,09,23,16,07,14.60
2007,09,23,16,08,14.60
2007,09,23,16,09,14.60
2007,09,23,16,10,14.60
2007,09,23,16,11,14.60
2007,09,23,16,12,14.60
2007,09,23,16,13,14.60
2007,09,23,16,14,14.60
2007,09,23,16,15,14.60
2007,09,23,16,16,14.60
2007,09,23,16,17,14.60
2007,09,23,16,18,14.60
2007,09,23,16,19,14.50
2007,09,23,16,20,14.50
2007,09,23,16,21,14.50
2007,09,23,16,22,14.50
2007,09,23,16,23,14.40
2007,09,23,16,24,14.40
2007,09,23,16,25,14.40
2007,09,23,16,26,14.30
2007,09,23,16,27,14.30
2007,09,23,16,28,14.30
2007,09,23,16,29,14.30
2007,09,23,16,30,14.20
2007,09,23,16,31,14.20
2007,09,23,16,32,14.20
2007,09,23,16,33,14.20
2007,09,23,16,34,14.20
2007,09,23,16,35,14.20
2007,09,23,16,36,14.20
2007,09,23,16,37,14.20
2007,09,23,16,38,14.10
2007,09,23,16,39,14.10
2007,09,23,16,40,14.10
2007,09,23,16,41,14.10
2007,09,23,16,42,14.10
2007,09,23,16,43,14.10
2007,09,23,16,44,14.00
2007,09,23,16,45,14.00
2007,09,23,16,46,14.00
2007,09,23,16,47,14.00
2007,09,23,16,48,13.90
2007,09,23,16,49,13.90
2007,09,23,16,50,13.90
2007,09,23,16,51,13.90
2007,09,23,16,52,13.90
2007,09,23,16,53,13.90
2007,09,23,16,54,13.90
2007,09,23,16,55,13.90
2007,09,23,16,56,13.80
2007,09,23,16,57,13.80
2007,09,23,16,58,13.80
2007,09,23,16,59,13.80
2007,09,23,17,00,13.80
2007,09,23,17,01,13.80
2007,09,23,17,02,13.80
2007,09,23,17,03,13.80
2007,09,23,17,04,13.70
2007,09,23,17,05,13.70
2007,09,23,17,06,13.70
2007,09,23,17,07,13.70
2007,09,23,17,08,13.70
2007,09,23,17,09,13.70
2007,09,23,17,10,13.70
2007,09,23,17,11,13.70
2007,09,23,17,12,13.70
2007,09,23,17,13,13.70
2007,09,23,17,14,13.70
2007,09,23,17,15,13.70
2007,09,23,17,16,13.70
2007,09,23,17,17,13.70
2007,09,23,17,18,13.70
2007,09,23,17,19,13.70
2007,09,23,17,20,13.70
2007,09,23,17,21,13.70
2007,09,23,17,22,13.70
2007,09,23,17,23,13.60
2007,09,23,17,24,13.60
2007,09,23,17,25,13.60
2007,09,23,17,26,13.60
2007,09,23,17,27,13.60
2007,09,23,17,28,13.60
2007,09,23,17,29,13.60
2007,09,23,17,30,13.60
2007,09,23,17,31,13.60
2007,09,23,17,32,13.60
2007,09,23,17,33,13.50
2007,09,23,17,34,13.50
2007,09,23,17,35,13.50
2007,09,23,17,36,13.50
2007,09,23,17,37,13.50
2007,09,23,17,38,13.50
2007,09,23,17,39,13.50
2007,09,23,17,40,13.40
2007,09,23,17,41,13.40
2007,09,23,17,42,13.40
2007,09,23,17,43,13.40
2007,09,23,17,44,13.40
2007,09,23,17,45,13.40